Regional Weather Roundup
Issued by NWS

Home | Current Version | Previous Version | Graphics & Text | Print | Product List | Glossary On
Versions: 1 2 3 4 5 6 7 8 9 10 11 12 13 14 15 16 17 18 19 20 21 22 23 24 25 26 27 28 29 30 31 32 33 34 35 36 37 38 39 40 41 42 43 44 45 46 47 48 49 50
000
ASUS45 KBOU 221307
RWRCO

WEATHER ROUNDUP FOR COLORADO
NATIONAL WEATHER SERVICE DENVER/BOULDER CO
600 AM MST MON DEC 22 2014

NOTE: "FAIR" INDICATES FEW OR NO CLOUDS BELOW 12000 FEET WITH NO
SIGNIFICANT WEATHER AND/OR OBSTRUCTIONS TO VISIBILITY.

COZ001>005-013-030-031-221400-
...NORTHWEST COLORADO...

CITY           SKY/WX    TMP DP  RH WIND       PRES   REMARKS
CRAIG          CLOUDY    32  25  75 W16       29.85S WCI  21
HAYDEN         CLOUDY    28  21  74 W8        29.83S WCI  20
MEEKER         CLOUDY    35  25  66 NW9       29.87S WCI  28
MOUNT WERNER   NOT AVBL
STEAMBOAT SPGS CLOUDY    29  22  74 W10G18    29.82S WCI  20
WALDEN         CLEAR     16   9  73 NE3       29.77S
$$

COZ006>008-011-221400-
...WEST CENTRAL VALLEYS...

CITY           SKY/WX    TMP DP  RH WIND       PRES   REMARKS
GRAND JUNCTION CLOUDY    32  31  96 E3        29.88S
MONTROSE       CLOUDY    33  30  88 E3        29.90F
EAGLE          CLOUDY    30  27  86 E5        29.86S WCI  25
RIFLE          CLOUDY    35  31  85 SW3       29.87F
DELTA          CLOUDY    35  33  92 NE5       29.89S WCI  31
NUCLA          CLOUDY    34  32  93 E6        29.95F WCI  29
$$

COZ017>023-064>068-221400-
...SOUTHWEST COLORADO...

CITY           SKY/WX    TMP DP  RH WIND       PRES   REMARKS
DURANGO        CLOUDY    40  29  64 W20G31    29.86R
CORTEZ         MOCLDY    34  31  88 NE8       29.95S WCI  27
PAGOSA SPRINGS CLOUDY    30  30 100 NE5       29.86S WCI  25
TELLURIDE      LGT SNOW  30  29  96 W17G25    29.93F WCI  18
WOLF CREEK PAS LGT SNOW  21  21 100 MISG      29.89R VSB 1
$$

COZ009-010-012-014-032>034-037-058>063-221400-
...CENTRAL COLORADO...

CITY           SKY/WX    TMP DP  RH WIND       PRES   REMARKS
ASPEN          CLOUDY    29  22  75 N12G23    29.83R WCI  19
BUENA VISTA    CLOUDY    29  23  78 NW13      29.76R WCI  19
COPPER MTN     CLOUDY    16  10  79 W36G47    29.72S WCI  -6
BERTHOUD PASS  HVY SNOW   7   1  78 MISG      29.61F VSB<1/4
COTTONWOOD PAS LGT SNOW  28  19  69 NW16G31   29.74S WCI  17
GUNNISON       CLOUDY    30  27  86 NW3       29.81F
KREMMLING      CLOUDY    30  19  64 W9        29.82S WCI  22
LEADVILLE      LGT SNOW  18  15  88 VRB7      29.75S VSB 1   WCI   9
SALIDA         CLOUDY    32  29  90 W7        29.84R WCI  26
SUNLIGHT       CLOUDY   N/A N/A N/A W5        29.84F
WILKERSON PASS CLOUDY    14  12  92 NW14G30   29.74R WCI  -1
$$

COZ069>075-221400-
...SAN LUIS VALLEY/SANGRE DE CRISTO MOUNTAINS...

CITY           SKY/WX    TMP DP  RH WIND       PRES   REMARKS
ALAMOSA        CLOUDY    26  25  96 E6        29.78R WCI  19
LA VETA PASS   LGT SNOW  27  23  86 SW8       29.76R WCI  18
SAGUACHE       LGT SNOW  32  30  93 NE6       29.76S WCI  26
$$

COZ035-036-038>040-221400-
...NORTHERN COLORADO FRONT RANGE...

CITY           SKY/WX    TMP DP  RH WIND       PRES   REMARKS
DENVER INTL AP PTCLDY    30  22  72 W7        29.74R WCI  23
DMNS CITY PARK   N/A     29  28  96 E2        29.74S
AURORA         PTCLDY    29  24  82 S1        29.75S
FRONT RANGE AP MOCLDY    30  25  80 W7        29.75R WCI  23
ERIE MUNI ARPT   N/A     29  28  98 CALM      29.74S
BOULDER MUN AP PTCLDY    34  32  93 SW6       29.74S WCI  29
CENTENNIAL     PTCLDY    26  24  92 S3        29.74S
BROOMFIELD     MOCLDY    30  28  93 W3        29.74S
FORT COLLINS   CLEAR     30  18  59 NW9       29.75S WCI  22
LONGMONT       CLEAR     29  27  92 CALM      29.77R
$$

COZ041-046-047-076>085-087-088-221400-
...PIKES PEAK/PALMER DIVIDE AND SOUTHERN FOOTHILLS...

CITY           SKY/WX    TMP DP  RH WIND       PRES   REMARKS
COLO. SPRINGS  MOCLDY    32  25  75 NW12      29.76R WCI  23
A. F. ACADEMY  PTCLDY    29  24  81 NW5       29.75R WCI  24
ELLICOTT       NOT AVBL
FALCON         PTCLDY    28  25  91 N8        29.75R WCI  19
FORT CARSON    PTCLDY    31  29  90 SW3       29.75R
LIMON          CLOUDY    30  24  78 NW12      29.74R WCI  20
MONUMENT HILL  CLOUDY    27  25  93 NW7       29.73S WCI  19
TRINIDAD       LGT SNOW  31  30  96 S8        29.79S FOG     WCI  23
$$

COZ042>045-048>051-090-091-221400-
...NORTHEAST COLORADO...

CITY           SKY/WX    TMP DP  RH WIND       PRES   REMARKS
GREELEY ARPT   PTCLDY    34  19  55 NW13      29.73R WCI  25
AKRON          CLOUDY    31  28  89 NW15      29.72R WCI  20
BURLINGTON     PTCLDY    34  27  75 NW20      29.69R WCI  23
WRAY           PTCLDY    36  29  76 NW21G29   29.68R
STERLING       CLOUDY    36  32  87 NW22G30   29.70R
HOLYOKE        MOCLDY    37  30  75 NW22G31   29.68R
FORT MORGAN    CLOUDY    30  24  79 NW15      29.74R WCI  19
$$

COZ086-089-092>099-221400-
...SOUTHEAST COLORADO...

CITY           SKY/WX    TMP DP  RH WIND       PRES   REMARKS
PUEBLO         CLOUDY    34  30  85 W10       29.77R WCI  26
LA JUNTA       CLOUDY    38  26  62 NW6       29.74R
LAMAR          CLOUDY    39  30  70 W12       29.72R
SPRINGFIELD      N/A     35  31  85 NW14      29.72R WCI  26
$$



USA.gov is the U.S. government's official web portal to all federal, state and local government web resources and services.